AQI (32)

Current Conditions for Foresthill, CA. Sunny, Dry   
Visibility: 10 miles
Space WX Alerts: CONTINUED ALERT:  Electron 2MeV Integral Flux exceeded 1000pfu ( Latest Alert ) - Issue Time: 2018 Dec 15 1352 UTC

  Summary / Temperature 

Current Temperature
44.8°F
7.1°C
(24/hr Ago)
47.9°F
(Apparent temp)
40.3°F
Cool
Wind Chill Graphs
44.8°F 
Wind Chill-Avg
42.7°F 5.9°C
 --- Virtual Temp: 46.1°F ---

 Temp Rate:

 24/hr Difference:

 Avg Running Temp:

 Todays High:

 Todays Low:

 Y-days High:

 Y-days Low:

 Todays WChill:

 Y-days WChill:

 Evapotranspiration:

+0.4°F/hr 

-3.1°F

43.4°F

46.5°F 12:00am

42.5°F 7:54am

52.3°F 10:20am

43.8°F 12:29am

35.5°F 8:52am

36.0°F 1:26am

0.004 in

115' Above Ground

 Temperature:

 6'AGL VRS 115'AGL:

 Avg Running Temp:

 Humidity:

 Todays High:

 Todays Low:

 Y-days High:

 Y-days Low:

50.0°F 

+5.2°F

50.0°F

0% 

50.0°F 12:00am

50.0°F 12:00am

52.0°F 10:55am

46.0°F 11:54am

Temp & Humidity Graphs

  Wind 

Wind Speed

 5.0 mph

Gusting to

 8.0 mph

Wind from ESE

121°  ESE

Light breeze

 Avg speed:

 Wind Run:

 Peak Gust:

  2.0 mph 

12.0 miles

  16.0 mph 2:50am

  Almanac  

Moon age: 7 days,14 hours,7 minutes,52%

Waxing Gibbous
52%
Illuminated
7 days in cycle

 Moonrise:

 Moonset:

 Sunrise:

 Sunset:

 Solar Noon:

12:41pm

---

7:14am

4:41pm

11:59am

0min 29s less daylight tomorrow 

  Solar Radiation 

(Current Solar)
  311 W/m2 (94%)
(Todays High)
 311 W/m2@9:24am
Feels like: 47.1°F in the sun

Rain

 Rain Today:

 Rain Rate (/hr):

 Rain last hour:

 Rain Yesterday:

 This Month:

 Season Total:

9 Days Since Last Rain Day

0.00 in

0.000 in

0.00 in

0.00 in

1.05 in

9.55 in

Updated Time

Updated: 12/15/18  9:24am

(Updated  sec ago)

Humidity & Barometer

 Humidity:

 Wetbulb:

 Dew Point:

 Barometer:

64% 

40.1°F 

33.4°F 

30.170 inHg 

 Baro Trend:  Steady 
Northern Calif
Preparedness
Fire 
Level 

    UV Index  

(Current UV)
0.7  Low
(Todays High) @ 9:24am
0.7   Low

National Weather Service Forecast

Today

Today: Mostly Sunny
Mostly Sunny
Tonight

Tonight: Partly Cloudy
Partly Cloudy
Sunday

Sunday: Rain
Rain
Sunday
Night
Sunday Night: Heavy Rain
Heavy Rain
Monday

Monday: Rain Showers Likely
Rain Showers Likely
Monday
Night
Monday Night: Partly Cloudy
Partly Cloudy
Hi 53 °F ↓ Lo 44 °F Hi 52 °F ↓ Lo 43 °F Hi 49 °F Lo 39 °F

Foresthill Probe 2 Stats  
Foresthill Probe 2: is located on Thomas Street
at 3000 feet. The main Foresthill Weather site
is located on Melody ln at the 2860 foot elevation

Calm
44.2°F
6.8°C
Temp Rate:
+0.6°F
Calm
Gusting to
3.0 mph
(Humidity)
68%
Wind from SW
235°  SW
Updated: 15/12/18 - 09:19:14
 Todays High: 45.3°F 00:00
 Todays Low: 40.8°F 08:02
 Rain Today: 0.00 in
 Season Total: 9.72 in

Foresthill Wx: Monthly,Yearly, Highs and Lows 

Foresthill  
This Weather Data is coming from the main Foresthill
Weather site located on Melody ln at the 2860 foot
elevation
Not Foresthill Probe 2
Weather Data
Month
  High
Month
  Low
Year
High
Year
Low
Temp 53.8°F
12/12/18
31.7°F
12/2/18
93.9°F
8/10/18
21.9°F
2/23/18
Humidity 100%
12/1/18
34%
12/14/18
100%
1/8/18
9%
10/15/18
Heat Index 55.8°F
12/12/18
36.0°F
12/3/18
93.3°F
7/25/18
27.1°F
2/20/18
Wind Chill 53.8°F
12/12/18
19.7°F
12/3/18
93.9°F
8/10/18
9.2°F
2/23/18
Wind Gust 25 mph
12/1/18
0 mph
12/1/18
43 mph
3/1/18
0 mph
1/1/18
Barometer 30.41 in
12/9/18
29.92 in
12/5/18
30.55 in
1/27/18
29.53 in
11/29/18
ET 0.06 in
12/13/18
0.00 in
12/1/18
0.25 in
6/24/18
0.00 in
1/1/18
Dew Point 44.0°F
12/8/18
23.6°F
12/14/18
66.9°F
7/24/18
0.7°F
11/8/18
Pacific Satellite US Radar Satellite Imagery Sacramento,CA.  (click to enlarge)
NWS Weather Forecast - Summary
Updated: Saturday, December 15, 2018 - 3:00am PST
Current Interstate Highway Conditions for I-80 & US-50

[I 80: IN THE SAN FRANCISCO BAY AREA - SOLANO CO]
no traffic restrictions are reported for this area.

[I 80: IN THE NORTHERN CALIFORNIA AREA & SIERRA NEVADA]
no traffic restrictions are reported for this area.

[US 50: IN THE SACRAMENTO VALLEY & THE LAKE TAHOE BASIN]
no traffic restrictions are reported for this area.
NWS Weather Forecast: Today and Tonight (Updated: Sat, 15-Dec-2018 2:13am PST)
Today

Today: Mostly Sunny
Mostly Sunny

Hi 53 °F ↓
NWS forecast: Mostly sunny. High near 53, with temperatures falling to around 50 in the afternoon. South southeast wind 3 to 7 mph.
Tonight

Tonight: Partly Cloudy
Partly Cloudy

Lo 44 °F
NWS forecast: Partly cloudy, with a low around 44. Southeast wind 3 to 7 mph.
YR.NO 10 Day Weather forecast
Last update: 12/14/2018 @ 23:35
Next update: 12/15/2018 @ 12:00
Provided by: 22
      Temperature Precipitation Pressure Wind  
Today
12/15/2018
08:00 12:00 39°F   30.12 inHg Light breeze from east 7 mph
  12:00 18:00 54°F   30.09 inHg Light breeze from south 5 mph
  18:00 00:00 41°F   30.08 inHg Light breeze from east-northeast 4 mph
    (Click to enlarge)
meteogram

    Forecast for next 9 days

      Temperature Precip Pressure Wind  
Sunday
12/16/2018
00:00 06:00 37°F   30.11 inHg Light breeze from east 6 mph
  06:00 12:00 37°F   30.09 inHg Light breeze from east 6 mph
  12:00 18:00 54°F 0.09 in 30.04 inHg Gentle breeze from south 8 mph
  18:00 00:00 46°F 0.69 in 30.02 inHg Light breeze from south-southeast 6 mph
      Temperature Precip Pressure Wind  
Monday
12/17/2018
00:00 06:00 41°F 0.74 in 30.01 inHg Gentle breeze from southeast 12 mph
  06:00 12:00 41°F 0.09 in 30.12 inHg Light breeze from south 5 mph
  12:00 18:00 45°F   30.18 inHg Light breeze from south 4 mph
  16:00 22:00 43°F   30.21 inHg Light air from south-southwest 3 mph
  22:00 04:00 34°F   30.26 inHg Light breeze from east-northeast 4 mph
      Temperature Precip Pressure Wind  
Tuesday
12/18/2018
04:00 10:00 30°F   30.26 inHg Light breeze from east-northeast 5 mph
  10:00 16:00 43°F   30.33 inHg Light air from east 2 mph
  16:00 22:00 46°F   30.30 inHg Light air from south-southwest 2 mph
  22:00 04:00 37°F   30.33 inHg Light air from east-northeast 2 mph
      Temperature Precip Pressure Wind  
Wednesday
12/19/2018
04:00 10:00 36°F   30.30 inHg Light breeze from east-northeast 6 mph
  10:00 16:00 55°F   30.31 inHg Light air from northeast 2 mph
  16:00 22:00 54°F   30.21 inHg Light air from west-southwest 2 mph
  22:00 04:00 39°F   30.25 inHg Light air from east-northeast 3 mph
      Temperature Precip Pressure Wind  
Thursday
12/20/2018
04:00 10:00 43°F   30.14 inHg Light breeze from east-northeast 7 mph
  10:00 16:00 55°F   30.23 inHg Light air from north-northwest 1 mph
  16:00 22:00 57°F   30.13 inHg Light air from south-southeast 2 mph
  22:00 04:00 43°F   30.13 inHg Light breeze from east 6 mph
      Temperature Precip Pressure Wind  
Friday
12/21/2018
04:00 10:00 43°F   30.14 inHg Light breeze from east 7 mph
  10:00 16:00 55°F   30.13 inHg Light air from east-southeast 1 mph
  16:00 22:00 52°F   30.07 inHg Light air from southwest 2 mph
  22:00 04:00 36°F   30.09 inHg Light air from east-northeast 2 mph
      Temperature Precip Pressure Wind  
Saturday
12/22/2018
04:00 10:00 37°F   30.07 inHg Light breeze from east-northeast 5 mph
  10:00 16:00 48°F   30.15 inHg Light air from south 1 mph
  16:00 22:00 48°F   30.12 inHg Light air from south 1 mph
  22:00 04:00 36°F   30.15 inHg Light air from east-northeast 2 mph
      Temperature Precip Pressure Wind  
Sunday
12/23/2018
04:00 10:00 37°F   30.17 inHg Light air from east-southeast 2 mph
  10:00 16:00 50°F   30.22 inHg Light air from east-southeast 2 mph
  16:00 22:00 46°F   30.19 inHg Calm from southeast 0 mph
  22:00 04:00 45°F   30.19 inHg Light air from southeast 2 mph
      Temperature Precip Pressure Wind  
Monday
12/24/2018
04:00 10:00 41°F   30.18 inHg Light air from east-northeast 2 mph
  10:00 16:00 48°F 0.02 in 30.18 inHg Light air from southwest 2 mph
How Close Are We To this Month's Temperature Record ?
Updated Saturday, Dec 15, 2018- 9:15:01 AM

Current Temperature: 44.8°F

December's High: Temperature Record 65.8°F - Set on Tue, Dec 17, 2013 - 1:22:00 PM
We are currently 21°F Less than this Month's record High

December's Low: Temperature Record 20.2°F - Set on Sun, Dec 8, 2013 - 7:26:00 AM
We are currently 24.6°F More than this Month's record Low

Weather History For Saturday, December 15, 2018


On this Day - In Weather History ...
Data courtesy of weatherforyou.com
powered by Cumulus v1.9.3 (1059)
Ambient Weather VWS v14.00
Top Contact Website Map Copyright © 2007 - 2018 Foresthillweather.com Never base important decisions on this or any weather information obtained from the Internet